Flag for U.S.A. Weather past 2 weeks in Pontiac, Michigan, U.S.A.

Now
25 °F

Ice fog.


Feels Like: 19 °F
Forecast: 28 / 39 °F
Wind: 5 mph from Southeast

Location: Oakland County International Airport

Current Time: Dec 22, 2014 at 8:31:18 AM

Latest Report: Dec 22, 2014 at 7:53 AM


Visibility: 6 mi

Pressure: 30.11 "Hg

Humidity: 88%

Dew point: 22 °F

Location of PontiacLocation

Historic Weather in Pontiac — Graph

°F

Pontiac temperature yesterday

Maximum temperature yesterday: 33 °F (at 1:53 PM)
Minimum temperature yesterday: 21 °F (at 2:53 AM)
Average temperature yesterday: 28 °F

Past Weeks' High & Low Weather Summary

 TemperatureHumidityPressure
High48 °F (Dec 14, 1:53 PM)97% (Dec 13, 6:53 PM)30.72 "Hg (Dec 13, 6:53 PM)
Low18 °F (Dec 20, 1:53 AM)32% (Dec 7, 1:53 PM)29.65 "Hg (Dec 16, 12:01 PM)
Average32 °F80%30.15 "Hg
* Reported Dec 7 6:53 AM — Dec 22 6:53 AM, Pontiac, Weather by CustomWeather, © 2014

Note: Actual official high and low records may vary slightly from our data, if they occured in-between our weather recording intervals... More about our weather records

Advertising

Pontiac weather history for previous 24 hours

 ConditionsComfort  
Time TempWeatherWind HumidityBarometerVisibility
6:53 AM
Dec 22
26 °FMostly cloudy.3 mph84%30.11 "Hg7 mi
5:53 AM26 °FIce fog.5 mph84%30.13 "Hg6 mi
4:53 AM26 °FIce fog.3 mph88%30.14 "Hg6 mi
3:53 AM26 °FIce fog.5 mph88%30.14 "Hg6 mi
2:53 AM26 °FIce fog.7 mph88%30.15 "Hg6 mi
1:53 AM26 °FIce fog.5 mph88%30.17 "Hg5 mi
12:53 AM26 °FIce fog.6 mph88%30.19 "Hg5 mi
11:53 PM
Dec 21
27 °FPassing clouds.8 mph85%30.20 "Hg7 mi
10:53 PM29 °FOvercast.7 mph79%30.22 "Hg7 mi
9:53 PM29 °FOvercast.8 mph79%30.22 "Hg8 mi
8:53 PM29 °FOvercast.8 mph75%30.23 "Hg8 mi
7:53 PM30 °FOvercast.9 mph72%30.23 "Hg8 mi
6:53 PM30 °FOvercast.10 mph75%30.24 "Hg8 mi
5:53 PM31 °FOvercast.7 mph69%30.24 "Hg9 mi
4:53 PM32 °FOvercast.9 mph69%30.24 "Hg9 mi
3:53 PM33 °FOvercast.8 mph66%30.24 "Hg8 mi
2:53 PM33 °FOvercast.9 mph66%30.23 "Hg9 mi
1:53 PM33 °FOvercast.6 mph63%30.24 "Hg9 mi
12:53 PM32 °FOvercast.8 mph66%30.27 "Hg9 mi
11:53 AM31 °FOvercast.7 mph69%30.29 "Hg8 mi
10:53 AM30 °FOvercast.8 mph72%30.32 "Hg9 mi
9:53 AM28 °FOvercast.5 mph81%30.31 "Hg8 mi
8:53 AM28 °FMore clouds than sun.6 mph81%30.30 "Hg7 mi
Weather by CustomWeather, © 2014

See weather overviewHow to use our weather pages